STARLINK-34389

Last updated on Thu Jul 03 2025 00:02:06 GMT+0000 (Coordinated Universal Time)

1 64351U 25126H 25183.58335648 -.01409329 00000+0 -17036-1 0 9993 2 64351 69.9996 310.2239 0003207 268.6089 307.7840 15.63225240 4328
UTC large
Height (km)
Speed (km/s)
/
Latitude / Longitude
Inclination (degrees)
Orbital Period (minutes)
Azimuth
Elevation
Range (km)
Doppler Factor

Next 0 passes for location: London (51.5072 / 0.1276)

Sorry there are no passes over London.